KF5JED-13 Weather Reports


time (UTC)temp
C
wind
direction
speed
KPH
gust
KPH
rain 1hr
cm
rain 24hr
cm
rain mn
cm
humidity
%
barometer
mb
20260904102246 21 146 9.7 12.9 0.00 0.00 0.00 73 1014.8
20260904101742 21 147 11.3 11.3 0.00 0.00 0.00 72 1014.6
20260904101238 21 146 8.0 12.9 0.00 0.00 0.00 72 1014.5
20260904100734 22 148 9.7 11.3 0.00 0.00 0.00 72 1014.5
20260904100230 22 147 8.0 12.9 0.00 0.00 0.00 71 1014.3
20260904095729 22 140 6.4 11.3 0.00 0.00 0.00 71 1014.3
20260904095224 22 134 9.7 12.9 0.00 0.00 0.00 70 1014.5
20260904094720 22 133 9.7 14.5 0.00 0.00 0.00 69 1014.3
20260904094219 22 143 12.9 16.1 0.00 0.00 0.00 69 1014.1
20260904093716 22 138 9.7 19.3 0.00 0.00 0.00 69 1014.2
20260904093215 22 138 14.5 19.3 0.00 0.00 0.00 68 1014.1
20260904092711 22 136 11.3 17.7 0.00 0.00 0.00 68 1014.1
20260904092207 22 126 12.9 19.3 0.00 0.00 0.00 68 1014.1
20260904091703 22 131 14.5 17.7 0.00 0.00 0.00 68 1014.3
20260904091158 22 134 9.7 17.7 0.00 0.00 0.00 67 1013.9
20260904090654 22 140 11.3 17.7 0.00 0.00 0.00 66 1014.5
20260904090149 22 148 11.3 19.3 0.00 0.00 0.00 67 1014.5
20260904085644 22 150 14.5 19.3 0.00 0.00 0.00 67 1014.1
20260904085143 22 151 11.3 16.1 0.00 0.00 0.00 67 1014.1
20260904084639 22 148 9.7 11.3 0.00 0.00 0.00 68 1014.3
20260904084135 22 156 11.3 14.5 0.00 0.00 0.00 67 1014.5
20260904083631 23 147 9.7 19.3 0.00 0.00 0.00 66 1014.5
20260904083127 23 160 11.3 16.1 0.00 0.00 0.00 65 1014.6
20260904082621 23 144 14.5 19.3 0.00 0.00 0.00 64 1014.6
20260904082117 23 148 12.9 20.9 0.00 0.00 0.00 64 1014.5
20260904081612 23 153 9.7 19.3 0.00 0.00 0.00 64 1014.5
20260904081108 23 153 9.7 16.1 0.00 0.00 0.00 64 1014.3
20260904080603 23 148 12.9 19.3 0.00 0.00 0.00 64 1014.6
20260904080059 23 151 17.7 20.9 0.00 0.00 0.00 63 1014.3
20260904075555 23 148 11.3 17.7 0.00 0.00 0.00 63 1014.2
20260904075050 23 145 14.5 19.3 0.00 0.00 0.00 62 1014.5
20260904074548 23 140 11.3 20.9 0.00 0.00 0.00 61 1014.6
20260904074038 23 156 9.7 19.3 0.00 0.00 0.00 62 1014.3
20260904073533 24 139 11.3 16.1 0.00 0.00 0.00 62 1014.2
20260904073030 24 149 14.5 17.7 0.00 0.00 0.00 61 1014.5
20260904072525 24 159 14.5 20.9 0.00 0.00 0.00 62 1014.3
20260904072020 23 154 19.3 22.5 0.00 0.00 0.00 62 1014.5
20260904071515 23 159 14.5 22.5 0.00 0.00 0.00 63 1014.3
20260904071010 23 156 12.9 20.9 0.00 0.00 0.00 64 1014.6
20260904070509 23 158 14.5 17.7 0.00 0.00 0.00 65 1014.7
20260904070004 22 162 12.9 16.1 0.00 0.00 0.00 68 1014.6
20260904065459 22 157 8.0 12.9 0.00 0.00 0.00 71 1014.6
20260904064955 22 155 9.7 12.9 0.00 0.00 0.00 72 1014.6
20260904064451 22 169 9.7 11.3 0.00 0.00 0.00 70 1014.7
20260904063945 22 168 9.7 14.5 0.00 0.00 0.00 69 1014.8
20260904063442 22 153 8.0 17.7 0.00 0.00 0.00 68 1014.8
20260904062937 23 149 9.7 17.7 0.00 0.00 0.00 67 1014.7
20260904062433 22 157 11.3 17.7 0.00 0.00 0.00 68 1014.8
20260904061928 23 156 19.3 20.9 0.00 0.00 0.00 67 1014.8
20260904061425 22 157 12.9 19.3 0.00 0.00 0.00 68 1015.0
20260904060921 22 149 11.3 19.3 0.00 0.00 0.00 69 1015.0
20260904060416 22 159 16.1 19.3 0.00 0.00 0.00 68 1014.9
20260904055912 22 153 16.1 20.9 0.00 0.00 0.00 68 1014.9
20260904055407 22 160 12.9 19.3 0.00 0.00 0.00 69 1015.0
20260904054903 22 140 11.3 19.3 0.00 0.00 0.00 69 1014.9
20260904054358 22 154 9.7 17.7 0.00 0.00 0.00 71 1014.9
20260904053854 22 160 14.5 20.9 0.00 0.00 0.00 71 1015.1
20260904053353 22 152 12.9 19.3 0.00 0.00 0.00 71 1015.0
20260904052849 22 157 16.1 19.3 0.00 0.00 0.00 71 1015.1
20260904052345 22 160 12.9 20.9 0.00 0.00 0.00 70 1015.1
20260904051841 23 155 14.5 24.1 0.00 0.00 0.00 68 1015.1
20260904051337 23 157 9.7 16.1 0.00 0.00 0.00 68 1015.1
20260904050836 23 151 8.0 17.7 0.00 0.00 0.00 67 1015.0
20260904050333 23 140 11.3 16.1 0.00 0.00 0.00 67 1014.9
20260904045827 23 128 11.3 17.7 0.00 0.66 0.66 67 1014.8
20260904045322 23 128 20.9 24.1 0.00 0.66 0.66 66 1014.9
20260904044817 22 132 12.9 19.3 0.00 0.66 0.66 66 1015.1
20260904044314 22 140 14.5 20.9 0.00 0.66 0.66 66 1014.8
20260904043809 23 144 14.5 17.7 0.00 0.66 0.66 64 1014.8
20260904043306 23 145 16.1 24.1 0.00 0.66 0.66 62 1015.0
20260904042801 23 135 9.7 22.5 0.00 0.66 0.66 62 1015.2
20260904042257 23 127 17.7 24.1 0.00 0.66 0.66 61 1015.0
20260904041756 23 143 14.5 22.5 0.00 0.66 0.66 61 1015.2
20260904041253 24 121 11.3 22.5 0.00 0.66 0.66 59 1015.0
20260904040748 24 128 24.1 29.0 0.00 0.66 0.66 57 1015.0
20260904040244 23 127 6.4 20.9 0.00 0.66 0.66 60 1015.0
20260904035740 24 95 4.8 14.5 0.00 0.66 0.66 60 1015.2
20260904035235 24 144 11.3 17.7 0.00 0.66 0.66 59 1014.8
20260904034734 23 116 9.7 20.9 0.00 0.66 0.66 61 1015.3
20260904034230 24 131 17.7 20.9 0.00 0.66 0.66 61 1015.1
20260904033725 23 118 9.7 20.9 0.00 0.66 0.66 62 1015.2
20260904033222 23 127 8.0 12.9 0.00 0.66 0.66 62 1015.0
20260904032718 23 106 8.0 12.9 0.00 0.66 0.66 63 1015.1
20260904032217 23 98 6.4 11.3 0.00 0.66 0.66 63 1014.9
20260904031712 23 108 4.8 12.9 0.00 0.66 0.66 65 1015.0
20260904031207 23 109 11.3 14.5 0.00 0.66 0.66 66 1015.0
20260904030703 23 88 8.0 12.9 0.00 0.66 0.66 63 1014.9
20260904030158 24 106 11.3 19.3 0.00 0.66 0.66 61 1014.8
20260904025655 25 113 14.5 22.5 0.00 0.66 0.66 59 1014.7
20260904025149 25 129 12.9 24.1 0.00 0.66 0.66 58 1014.3
20260904024645 25 125 12.9 22.5 0.00 0.66 0.66 58 1014.5
20260904024140 25 141 14.5 24.1 0.00 0.66 0.66 56 1014.5
20260904023636 25 137 22.5 25.7 0.00 0.66 0.66 58 1014.5
20260904023131 26 131 17.7 24.1 0.00 0.66 0.66 54 1014.2
20260904022631 26 144 14.5 27.4 0.00 0.66 0.66 54 1014.3
20260904022128 26 146 12.9 20.9 0.00 0.66 0.66 53 1014.0
20260904021624 26 136 19.3 24.1 0.00 0.66 0.66 53 1014.2
20260904021118 25 139 9.7 20.9 0.00 0.66 0.66 54 1014.2
20260904020614 25 128 14.5 20.9 0.00 0.66 0.66 55 1014.3
20260904015557 25 116 8.0 16.1 0.00 0.66 0.66 58 1014.2
20260904015056 25 126 12.9 19.3 0.00 0.66 0.66 56 1014.1
20260904014555 26 97 6.4 19.3 0.00 0.66 0.66 55 1014.0
20260904014051 26 87 11.3 22.5 0.00 0.66 0.66 54 1013.8
20260904013548 26 123 16.1 24.1 0.00 0.66 0.66 54 1013.8
20260904013039 26 133 22.5 35.4 0.00 0.66 0.66 53 1013.9
20260904012538 27 114 9.7 20.9 0.00 0.66 0.66 49 1013.9
20260904012038 27 138 17.7 30.6 0.00 0.66 0.66 49 1013.7
20260904011532 25 93 6.4 19.3 0.00 0.66 0.66 60 1014.1
20260904011027 26 118 22.5 41.8 0.00 0.66 0.66 54 1014.0
20260904010524 25 143 27.4 40.2 0.00 0.66 0.66 62 1013.9
20260904010019 25 149 24.1 37.0 0.00 0.66 0.66 57 1014.0
20260904005514 27 144 24.1 32.2 0.00 0.66 0.66 50 1013.9
20260904005009 26 141 6.4 14.5 0.00 0.66 0.66 56 1014.1
20260904004504 25 140 8.0 17.7 0.00 0.66 0.66 58 1014.2
20260904003959 25 127 11.3 22.5 0.00 0.66 0.66 57 1014.3
20260904003455 25 136 20.9 25.7 0.00 0.66 0.66 58 1014.7
20260904002950 25 97 16.1 17.7 0.00 0.66 0.66 67 1014.7
20260904002446 25 137 14.5 30.6 0.00 0.66 0.66 68 1015.0
20260904001944 24 166 22.5 27.4 0.00 0.66 0.66 71 1015.3
20260904001441 25 150 19.3 24.1 0.00 0.66 0.66 62 1015.0
20260904000935 26 148 9.7 17.7 0.00 0.66 0.66 61 1015.1
20260904000434 25 148 14.5 22.5 0.00 0.66 0.66 63 1015.2
20260903235930 25 147 16.1 19.3 0.00 0.66 0.66 59 1014.9
20260903235426 26 170 16.1 25.7 0.00 0.66 0.66 59 1014.9
20260903234920 26 157 16.1 25.7 0.00 0.66 0.66 57 1014.6
20260903234416 26 94 14.5 16.1 0.00 0.66 0.66 56 1013.9
20260903233912 25 104 12.9 20.9 0.00 0.66 0.66 59 1013.8
20260903233408 25 79 17.7 24.1 0.00 0.66 0.66 58 1013.6
20260903232902 25 82 17.7 20.9 0.00 0.66 0.66 63 1013.6
20260903232357 26 80 14.5 25.7 0.00 0.66 0.66 56 1013.6
20260903231856 26 112 19.3 25.7 0.00 0.66 0.66 59 1013.9
20260903231351 26 138 19.3 30.6 0.00 0.66 0.66 57 1014.0
20260903230847 27 142 16.1 27.4 0.00 0.66 0.66 57 1013.6
20260903230342 29 157 22.5 29.0 0.00 0.66 0.66 50 1013.7
20260903225838 30 148 11.3 14.5 0.00 0.66 0.66 46 1013.6
20260903225334 30 101 6.4 14.5 0.00 0.66 0.66 43 1013.7
20260903224830 29 102 11.3 17.7 0.00 0.66 0.66 47 1013.3
20260903224326 28 130 6.4 11.3 0.00 0.66 0.66 51 1013.8
20260903223822 28 70 12.9 19.3 0.00 0.66 0.66 49 1013.6
20260903223320 28 76 14.5 22.5 0.00 0.66 0.66 48 1013.8
20260903222815 26 101 9.7 20.9 0.00 0.66 0.66 55 1014.1
20260903222314 24 89 12.9 14.5 0.05 0.66 0.66 69 1014.1
20260903221809 23 354 9.7 17.7 1.55 0.66 0.66 68 1014.0
20260903221308 23 62 17.7 40.2 3.07 0.64 0.64 70 1013.9
20260903220806 25 127 9.7 24.1 2.34 0.38 0.38 65 1015.0
20260903220301 25 248 30.6 40.2 0.79 0.13 0.13 84 1013.8
20260903215753 33 284 16.1 27.4 0.00 0.00 0.00 34 1013.6
20260903215250 33 339 11.3 27.4 0.00 0.00 0.00 31 1013.1
20260903214747 33 328 14.5 25.7 0.00 0.00 0.00 31 1013.3
20260903214239 34 301 12.9 24.1 0.00 0.00 0.00 29 1013.2
20260903213732 34 304 9.7 20.9 0.00 0.00 0.00 29 1013.1
20260903213228 34 246 14.5 22.5 0.00 0.00 0.00 29 1013.2
20260903212724 36 210 16.1 19.3 0.00 0.00 0.00 28 1013.2
20260903212220 37 189 16.1 22.5 0.00 0.00 0.00 27 1012.9
20260903211713 38 224 14.5 27.4 0.00 0.00 0.00 25 1013.1
20260903211210 38 183 6.4 12.9 0.00 0.00 0.00 25 1013.1
20260903210706 38 311 6.4 8.0 0.00 0.00 0.00 25 1013.0
20260903210202 37 245 6.4 16.1 0.00 0.00 0.00 25 1013.3
20260903205701 37 209 16.1 25.7 0.00 0.00 0.00 25 1013.3
20260903205200 38 212 19.3 29.0 0.00 0.00 0.00 26 1013.5
20260903204656 38 251 3.2 9.7 0.00 0.00 0.00 25 1013.7
20260903204152 38 244 6.4 11.3 0.00 0.00 0.00 25 1013.6
20260903203647 37 142 8.0 19.3 0.00 0.00 0.00 26 1013.7
20260903203142 38 186 8.0 14.5 0.00 0.00 0.00 25 1013.9
20260903202637 38 205 11.3 12.9 0.00 0.00 0.00 25 1013.7
20260903202132 38 186 12.9 20.9 0.00 0.00 0.00 25 1013.9
20260903201626 38 169 11.3 22.5 0.00 0.00 0.00 26 1014.0
20260903201126 37 213 9.7 17.7 0.00 0.00 0.00 26 1013.8
20260903200621 37 217 25.7 30.6 0.00 0.00 0.00 26 1013.9
20260903200116 37 207 16.1 24.1 0.00 0.00 0.00 27 1014.2
20260903195612 38 163 8.0 16.1 0.00 0.00 0.00 25 1014.1
20260903195108 37 151 6.4 9.7 0.00 0.00 0.00 27 1014.2
20260903194602 38 163 6.4 17.7 0.00 0.00 0.00 26 1014.3
20260903194057 37 212 16.1 19.3 0.00 0.00 0.00 27 1014.6
20260903193554 37 216 17.7 20.9 0.00 0.00 0.00 27 1014.5
20260903193049 37 175 6.4 9.7 0.00 0.00 0.00 27 1014.5
20260903192545 37 206 16.1 22.5 0.00 0.00 0.00 27 1014.5
20260903192040 37 203 20.9 33.8 0.00 0.00 0.00 27 1014.5
20260903191536 37 147 8.0 16.1 0.00 0.00 0.00 28 1014.6
20260903191030 37 168 3.2 12.9 0.00 0.00 0.00 27 1014.8
20260903190524 36 301 9.7 9.7 0.00 0.00 0.00 29 1014.7
20260903190024 36 259 14.5 27.4 0.00 0.00 0.00 29 1014.9
20260903185519 36 268 6.4 12.9 0.00 0.00 0.00 29 1015.1
20260903185015 36 230 12.9 19.3 0.00 0.00 0.00 29 1015.1
20260903184506 36 246 6.4 14.5 0.00 0.00 0.00 29 1015.3
20260903184005 36 287 6.4 9.7 0.00 0.00 0.00 28 1015.2
20260903183500 36 230 12.9 17.7 0.00 0.00 0.00 28 1015.3
20260903182959 36 235 14.5 19.3 0.00 0.00 0.00 29 1015.5
20260903182458 36 228 11.3 16.1 0.00 0.00 0.00 29 1015.6
20260903181954 36 237 12.9 19.3 0.00 0.00 0.00 30 1015.7
20260903181448 35 238 9.7 24.1 0.00 0.00 0.00 30 1015.8
20260903180947 35 240 19.3 25.7 0.00 0.00 0.00 30 1015.7
20260903180443 35 219 11.3 14.5 0.00 0.00 0.00 31 1015.8
20260903175942 35 214 17.7 29.0 0.00 0.00 0.00 30 1015.8
20260903175437 35 230 9.7 14.5 0.00 0.00 0.00 31 1016.0
20260903174936 35 248 9.7 20.9 0.00 0.00 0.00 31 1016.0
20260903174432 35 239 20.9 22.5 0.00 0.00 0.00 31 1015.9
20260903173931 35 224 20.9 32.2 0.00 0.00 0.00 32 1016.2
20260903173426 35 218 11.3 32.2 0.00 0.00 0.00 32 1016.1
20260903172922 35 216 24.1 29.0 0.00 0.00 0.00 32 1015.9
20260903172416 35 215 17.7 27.4 0.00 0.00 0.00 32 1016.0
20260903171912 35 210 25.7 32.2 0.00 0.00 0.00 33 1016.0
20260903171407 35 209 17.7 30.6 0.00 0.00 0.00 33 1015.9
20260903170901 35 205 11.3 24.1 0.00 0.00 0.00 33 1016.1
20260903170356 35 210 20.9 33.8 0.00 0.00 0.00 33 1016.0
20260903165855 34 229 20.9 29.0 0.00 0.00 0.00 33 1016.1
20260903165349 33 215 27.4 30.6 0.00 0.00 0.00 33 1016.2
20260903164844 33 234 20.9 25.7 0.00 0.00 0.00 33 1016.2
20260903164339 34 221 17.7 27.4 0.00 0.00 0.00 33 1015.9
20260903163838 34 223 19.3 30.6 0.00 0.00 0.00 33 1016.1
20260903163335 33 217 22.5 27.4 0.00 0.00 0.00 33 1016.2
20260903162831 33 216 25.7 30.6 0.00 0.00 0.00 33 1016.1
20260903162327 33 216 27.4 32.2 0.00 0.00 0.00 34 1016.1
20260903161823 33 211 17.7 22.5 0.00 0.00 0.00 35 1016.0
20260903161318 33 211 16.1 22.5 0.00 0.00 0.00 35 1016.0
20260903160814 33 212 22.5 27.4 0.00 0.00 0.00 36 1015.9
20260903160312 32 217 20.9 24.1 0.00 0.00 0.00 37 1016.3
20260903155811 32 227 16.1 20.9 0.00 0.00 0.00 38 1016.2
20260903155307 32 239 17.7 22.5 0.00 0.00 0.00 39 1016.3
20260903154801 31 219 12.9 25.7 0.00 0.00 0.00 40 1016.3
20260903154258 31 239 9.7 25.7 0.00 0.00 0.00 40 1016.1
20260903153753 31 214 20.9 20.9 0.00 0.00 0.00 41 1016.2
20260903153249 30 226 14.5 24.1 0.00 0.00 0.00 43 1016.1
20260903152745 30 213 16.1 24.1 0.00 0.00 0.00 43 1016.2
20260903152241 30 237 12.9 19.3 0.00 0.00 0.00 44 1016.3
20260903151741 29 217 14.5 19.3 0.00 0.00 0.00 45 1016.3
20260903151236 29 213 17.7 19.3 0.00 0.00 0.00 46 1016.2
20260903150731 27 227 9.7 17.7 0.00 0.00 0.00 50 1016.1
20260903150225 27 226 11.3 16.1 0.00 0.00 0.00 50 1016.2
20260903145725 27 217 9.7 17.7 0.00 0.00 0.00 49 1016.2
20260903145221 27 215 14.5 20.9 0.00 0.00 0.00 49 1016.3
20260903144719 26 224 12.9 19.3 0.00 0.00 0.00 50 1016.5
20260903144215 26 211 19.3 20.9 0.00 0.00 0.00 51 1016.3
20260903143711 26 198 12.9 19.3 0.00 0.00 0.00 52 1016.3
20260903143207 25 216 16.1 22.5 0.00 0.00 0.00 52 1016.3
20260903142702 25 200 12.9 16.1 0.00 0.00 0.00 53 1016.3
20260903142159 25 206 12.9 16.1 0.00 0.00 0.00 53 1016.3
20260903141654 25 208 9.7 19.3 0.00 0.00 0.00 53 1016.3
20260903141149 24 204 16.1 16.1 0.00 0.00 0.00 54 1016.6
20260903140644 24 212 12.9 14.5 0.00 0.00 0.00 56 1016.6
20260903140140 23 206 8.0 16.1 0.00 0.00 0.00 57 1016.6
20260903135635 23 198 11.3 12.9 0.00 0.00 0.00 57 1016.2
20260903135130 23 197 9.7 16.1 0.00 0.00 0.00 57 1016.3
20260903134628 23 191 14.5 16.1 0.00 0.00 0.00 57 1016.3
20260903134120 23 195 12.9 17.7 0.00 0.00 0.00 56 1016.5
20260903133617 23 189 8.0 17.7 0.00 0.00 0.00 57 1016.2
20260903133113 23 195 8.0 19.3 0.00 0.00 0.00 57 1016.2
20260903132608 22 182 9.7 16.1 0.00 0.00 0.00 58 1016.2
20260903132107 22 203 9.7 14.5 0.00 0.00 0.00 60 1016.3
20260903131602 22 188 9.7 12.9 0.00 0.00 0.00 60 1016.2
20260903131101 21 170 6.4 12.9 0.00 0.00 0.00 62 1016.1
20260903130556 21 178 9.7 11.3 0.00 0.00 0.00 64 1015.9
20260903130051 20 178 9.7 11.3 0.00 0.00 0.00 65 1016.1
20260903125549 20 185 6.4 12.9 0.00 0.00 0.00 66 1016.1
20260903125044 20 204 6.4 9.7 0.00 0.00 0.00 66 1016.0
20260903124539 20 198 6.4 9.7 0.00 0.00 0.00 66 1015.7
20260903124038 20 208 9.7 9.7 0.00 0.00 0.00 66 1015.7
20260903123538 20 207 9.7 11.3 0.00 0.00 0.00 66 1015.9
20260903123037 20 210 8.0 12.9 0.00 0.00 0.00 66 1015.7
20260903122531 20 201 9.7 12.9 0.00 0.00 0.00 65 1015.8
20260903122031 20 204 9.7 12.9 0.00 0.00 0.00 65 1015.6
20260903121526 20 204 6.4 14.5 0.00 0.00 0.00 64 1015.7
20260903121022 20 200 9.7 12.9 0.00 0.00 0.00 65 1015.5
20260903120520 20 190 8.0 12.9 0.00 0.00 0.00 64 1015.5
20260903120015 20 182 12.9 14.5 0.00 0.00 0.00 63 1015.5
20260903115513 21 194 11.3 16.1 0.00 0.00 0.00 61 1015.3
20260903115008 21 198 16.1 17.7 0.00 0.00 0.00 60 1015.6
20260903114504 21 196 9.7 16.1 0.00 0.00 0.00 61 1015.6
20260903113959 20 202 9.7 11.3 0.00 0.00 0.00 62 1015.7
20260903113455 20 180 8.0 11.3 0.00 0.00 0.00 63 1015.5
20260903112950 20 170 9.7 9.7 0.00 0.00 0.00 61 1015.5
20260903112446 20 184 8.0 16.1 0.00 0.00 0.00 61 1015.6
20260903111945 20 178 9.7 9.7 0.00 0.00 0.00 64 1015.6
20260903111444 20 157 6.4 8.0 0.00 0.00 0.00 64 1015.5
20260903110941 20 161 6.4 9.7 0.00 0.00 0.00 63 1015.5
20260903110437 20 187 6.4 9.7 0.00 0.00 0.00 62 1015.3
20260903105932 20 171 9.7 16.1 0.00 0.00 0.00 60 1015.1
20260903105427 20 169 11.3 14.5 0.00 0.00 0.00 61 1015.2
20260903104926 20 183 9.7 14.5 0.00 0.00 0.00 62 1015.2
20260903104425 20 187 6.4 11.3 0.00 0.00 0.00 62 1015.5
20260903103922 20 169 9.7 12.9 0.00 0.00 0.00 62 1015.6
20260903103418 20 186 8.0 12.9 0.00 0.00 0.00 62 1015.7
20260903102913 20 185 12.9 12.9 0.00 0.00 0.00 61 1015.7